Norman Wells, Northwest Territories

1:52 AM MDT on June 24, 2017 (GMT -0600)
Norman Wells

Weather History for CYVQ - January, 2013

Change the Weather History Date:

Wednesday, January 9, 2013

  Actual Average Record
Temperature  
Mean Temperature -18 °F -  
Max Temperature -9 °F -9 °F 14 °F (2002)
Min Temperature -26 °F -24 °F -45 °F (2009)
Degree Days  
Heating Degree Days 82    
Moisture  
Dew Point -19 °F    
Average Humidity 73    
Maximum Humidity 77    
Minimum Humidity 59    
Precipitation  
Precipitation 0.00 in 0.02 in - ()
Sea Level Pressure  
Sea Level Pressure 30.15 in    
Wind  
Wind Speed 7 mph ()    
Max Wind Speed 14 mph    
Max Gust Speed -    
Visibility 14.3 miles    
Events Snow    
Averages and records for this station are not official NWS values.
T = Trace of Precipitation, MM = Missing Value Source: Averaged Metar Reports

Daily Weather History Graph

Daily Weather History Graph

Search for Another Location

Airport or City:

Trip Planner

Search our weather history database for the weather conditions in past years. The results will help you decide how hot, cold, wet, or windy it might be!

Date:

Astronomy

Jan. 09, 2013 Rise Set
Actual Time 11:23 AM MST 3:46 PM MST
Civil Twilight 10:04 AM MST 5:05 PM MST
Nautical Twilight 8:54 AM MST 6:15 PM MST
Astronomical Twilight 7:53 AM MST 7:16 PM MST
Moon 9:11 AM MST (1/9) 1:51 PM MST (1/9)
Length of Visible Light 7h 01m
Length of Day
4h 23m
Waning Crescent, 6% of the Moon is Illuminated
Jan 9
Waning Crescent
Jan 11
New
Jan 18
First Quarter
Jan 26
Full
Feb 3
Last Quarter

Hourly Weather History & Observations

Time (MST) Temp. Windchill Dew Point Humidity Pressure Visibility Wind Dir Wind Speed Gust Speed Precip Events Conditions
12:00 AM -11.2 °F -26.4 °F -16.6 °F 77% 30.04 in 15.0 mi WNW 6.9 mph - N/A   Ice Crystals
1:00 AM -9.4 °F -20.9 °F -16.6 °F 71% 30.06 in 15.0 mi WNW 4.6 mph - N/A Snow Light Snow
2:00 AM -11.2 °F -32.1 °F -16.6 °F 77% 30.08 in 15.0 mi WNW 12.7 mph - N/A Snow Light Snow
3:00 AM -9.4 °F -26.8 °F -16.6 °F 71% 30.10 in 15.0 mi WNW 9.2 mph - N/A Snow Light Snow
4:00 AM -9.4 °F -30.6 °F -14.8 °F 77% 30.10 in - West 13.8 mph - N/A   Overcast
5:00 AM -10 °F - -16 °F 62% 30.11 in 19 mi West 12.7 mph - - Snow Light Snow
5:00 AM -9.4 °F -30.6 °F -16.6 °F 71% 30.11 in 20.0 mi West 13.8 mph - N/A Snow Light Snow
6:00 AM -11.2 °F -31.1 °F -16.6 °F 77% 30.13 in 20.0 mi West 11.5 mph - N/A Snow Light Snow
7:00 AM -11.2 °F -30.1 °F -16.6 °F 77% 30.14 in 20.0 mi West 10.4 mph - N/A Snow Light Snow
8:00 AM -9.4 °F -24.3 °F -14.8 °F 77% 30.14 in 10.0 mi WNW 6.9 mph - N/A Snow Light Snow
10:00 AM -13.0 °F -25.1 °F -18.4 °F 77% 30.17 in 10.0 mi West 4.6 mph - N/A Snow Light Snow
11:00 AM -13 °F - -19 °F 63% 30.17 in 7 mi West 5.8 mph - - Snow Light Snow
12:00 PM -13.0 °F -28.6 °F -18.4 °F 77% 30.17 in 8.0 mi WNW 6.9 mph - N/A Snow Light Snow
1:00 PM -13.0 °F -25.1 °F -18.4 °F 77% 30.17 in 10.0 mi NNW 4.6 mph - N/A Snow Light Snow
2:00 PM -13.0 °F -22.7 °F -18.4 °F 77% 30.17 in 15.0 mi East 3.5 mph - N/A Snow Light Snow
3:00 PM -13.0 °F -25.1 °F -18.4 °F 77% 30.19 in 15.0 mi East 4.6 mph - N/A Snow Light Snow
4:00 PM -14.8 °F - -20.2 °F 77% 30.20 in 10.0 mi Calm Calm - N/A Snow Light Snow
5:00 PM -17 °F - -22 °F 64% 30.21 in 7 mi ENE 4.6 mph - - Snow Light Snow
6:00 PM -18.4 °F -28.9 °F -25.6 °F 70% 30.21 in 10.0 mi East 3.5 mph - N/A   Ice Crystals
8:00 PM -20.2 °F - -27.4 °F 69% 30.21 in 15.0 mi Calm Calm - N/A   Ice Crystals
9:00 PM -18.4 °F - -25.6 °F 70% 30.22 in 20.0 mi SSE 2.3 mph - N/A   Ice Crystals
10:00 PM -22.0 °F -35.6 °F -27.4 °F 76% 30.22 in 20.0 mi NE 4.6 mph - N/A   Ice Crystals
11:00 PM -20 °F - -26 °F 59% 30.23 in 19 mi East 3.5 mph - - Snow Snow